Home   Weather   Prince George   Past weeks
Flag for Canada

Past Weather in Prince George, British Columbia, Canada — Yesterday and Last 2 Weeks

Now
37 °F

Mostly cloudy.


Feels Like: 29 °F
Forecast: 43 / 34 °F
Wind: 13 mph from South

Location: Prince George

Current Time: Oct 21, 2019 at 3:20:26 am

Latest Report: Oct 21, 2019 at 2:33 am


Visibility: 9 mi

Pressure: 29.88 "Hg (27.83 "Hg at 573m altitude)

Humidity: 93%

Dew Point: 36 °F

Location of Prince GeorgeLocation

Past Weather in Prince George — Graph

°F

Prince George Temperature Yesterday

Maximum temperature yesterday: 41 °F (at 12:49 pm)
Minimum temperature yesterday: 30 °F (at 7:00 am)
Average temperature yesterday: 36 °F

High & Low Weather Summary for the Past Weeks

 TemperatureHumidityPressure
High57 °F (Oct 16, 2:43 pm)100% (Oct 7, 10:00 am)30.51 "Hg (Oct 7, 10:00 am)
Low16 °F (Oct 9, 3:00 am)36% (Oct 9, 4:00 pm)29.28 "Hg (Oct 17, 10:00 pm)
Average38 °F81%29.92 "Hg
* Reported Oct 6 2:00 am — Oct 21 2:00 am, Prince George. Weather by CustomWeather, © 2019

Note: Actual official high and low records may vary slightly from our data, if they occured in-between our weather recording intervals... More about our weather records

Advertising

Prince George Weather History for the Previous 24 Hours

Scroll right to see more
 ConditionsComfort  
Time TempWeatherWind HumidityBarometerVisibility
2:00 am
Mon, Oct 21
37 °FMostly cloudy.12 mph93%29.88 "Hg9 mi
1:00 am37 °FPartly cloudy.17 mph93%29.86 "Hg9 mi
12:21 am37 °FMostly cloudy.10 mph93%29.86 "Hg9 mi
12:00 am37 °FLight rain. Mostly cloudy.10 mph93%29.85 "Hg9 mi
11:38 pm
Sun, Oct 20
37 °FLight rain. Partly cloudy.12 mph93%29.85 "Hg9 mi
11:00 pm36 °FMostly cloudy.13 mph100%29.84 "Hg9 mi
10:00 pm36 °FLight rain. Mostly cloudy.10 mph100%29.84 "Hg9 mi
9:59 pm36 °FLight rain. Mostly cloudy.10 mph100%29.84 "Hg9 mi
9:15 pm36 °FLight rain. Fog.9 mph100%29.84 "Hg6 mi
9:09 pm36 °FLight rain. Mostly cloudy.8 mph100%29.84 "Hg5 mi
8:59 pm36 °FLight rain. Mostly cloudy.9 mph100%29.84 "Hg9 mi
8:24 pm36 °FLight rain. Mostly cloudy.8 mph100%29.83 "Hg9 mi
8:00 pm36 °FMostly cloudy.9 mph100%29.83 "Hg9 mi
7:00 pm36 °FMostly cloudy.9 mph93%29.82 "Hg9 mi
6:34 pm36 °FLight rain. Overcast.9 mph100%29.82 "Hg9 mi
6:00 pm36 °FCloudy.10 mph93%29.82 "Hg9 mi
5:00 pm36 °FLight rain. Overcast.9 mph100%29.81 "Hg9 mi
4:14 pm37 °FLight rain. Cloudy.12 mph93%29.81 "Hg9 mi
4:06 pm37 °FLight rain. Mostly cloudy.12 mph93%29.81 "Hg9 mi
3:38 pm37 °FLight rain. Mostly cloudy.8 mph93%29.80 "Hg9 mi
3:20 pm37 °FLight rain. Cloudy.12 mph93%29.81 "Hg9 mi
2:00 pm37 °FLight rain. Mostly cloudy.13 mph87%29.81 "Hg9 mi
1:29 pm39 °FLight rain. Mostly cloudy.16 mph81%29.80 "Hg9 mi
1:15 pm39 °FLight rain. Partly sunny.14 mph75%29.80 "Hg9 mi
1:00 pm41 °FPartly sunny.13 mph70%29.81 "Hg9 mi
12:49 pm41 °FPartly sunny.13 mph70%29.81 "Hg9 mi
12:00 pm37 °FScattered clouds.No wind81%29.81 "Hg9 mi
11:00 am36 °FPartly sunny.5 mph81%29.83 "Hg9 mi
10:00 am36 °FSunny.8 mph81%29.84 "Hg9 mi
9:00 am30 °FSunny.5 mph93%29.87 "Hg9 mi
8:00 am30 °FPartly sunny.9 mph93%29.88 "Hg9 mi
7:00 am30 °FClear.7 mph86%29.88 "Hg9 mi
6:00 am32 °FPassing clouds.8 mph87%29.88 "Hg9 mi
5:00 am32 °FPartly cloudy.8 mph87%29.86 "Hg9 mi
4:00 am32 °FPassing clouds.8 mph87%29.86 "Hg9 mi
3:59 am32 °FPassing clouds.9 mph87%29.86 "Hg9 mi
3:00 am34 °FOvercast.7 mph81%29.86 "Hg9 mi
Weather by CustomWeather, © 2019

See weather overview